Regional Weather Roundup
Issued by NWS

Home | Current Version | Previous Version | Text Only | Print | Product List | Glossary Off
Versions: 1 2 3 4 5 6 7 8 9 10 11 12 13 14 15 16 17 18 19 20 21 22 23 24 25 26 27 28 29 30 31 32 33 34 35 36 37 38 39 40 41 42 43 44 45 46 47 48 49 50

000
ASUS43 KDTX 231901
RWRMI
MICHIGAN HOURLY REGIONAL WEATHER ROUNDUP
NATIONAL WEATHER SERVICE DETROIT/PONTIAC MI
300 PM EDT TUE AUG 23 2016

NOTE: "FAIR" INDICATES FEW OR NO CLOUDS BELOW 12,000 FEET WITH NO
SIGNIFICANT WEATHER AND/OR OBSTRUCTION TO VISIBILITY.

MIZ047>049-052>055-059>063-066>070-074>076-081>083-232000-
SOUTHEAST LOWER MICHIGAN

CITY           SKY/WX    TMP DP  RH WIND       PRES   REMARKS
ADRIAN         CLOUDY    78  60  53 SW7       30.25F
ALMA           PTSUNNY   79  62  56 SW10G18   30.21F
ANN ARBOR      CLOUDY    81  58  45 SW10G25   30.24F
BAD AXE        SUNNY     78  59  50 SW12      30.21F
CARO           SUNNY     80  60  50 SW13      30.20F
DETROIT CITY   SUNNY     80  60  50 S14       30.24F
DETROIT        PTSUNNY   79  58  48 SW12      30.25S
FLINT          SUNNY     82  59  45 SW10      30.22F
GROSSE ILE     MOSUNNY   78  61  54 S12       30.24F
HILLSDALE      MOSUNNY   77  59  53 S6        30.25F
HOWELL         MOSUNNY   79  57  47 SW9       30.23F

CITY           SKY/WX    TMP DP  RH WIND       PRES   REMARKS
JACKSON        PTSUNNY   77  58  51 S13       30.24F
LAMBERTVILLE   CLOUDY    81  57  44 W6        30.25F
LANSING        MOSUNNY   79  57  46 SW15G21   30.23F
LAPEER         NOT AVBL
MASON          MOSUNNY   78  58  49 SW8       30.24F
MONROE         MOSUNNY   80  63  56 SW5       30.24F
MT. CLEMENS    MOSUNNY   82  59  44 SW8       30.21F
PONTIAC        PTSUNNY   79  57  46 SW14G20   30.23F
PORT HURON     SUNNY     79  61  53 S9G16     30.24F
TRI CITIES     SUNNY     80  61  52 SW14      30.20F
MIDLAND        FAIR      80  60  50 SW10G18   30.19F
TROY           SUNNY     82  52  35 SW9G17    30.25F
SAGINAW HB     MOSUNNY   79  61  53 SW10G16   30.20F
$$
MIZ043>046-050>051-056>058-064>065-071>073-077>080-232000-
SOUTHWEST LOWER MICHIGAN

CITY           SKY/WX    TMP DP  RH WIND       PRES   REMARKS
BATTLE CREEK   MOSUNNY   75  60  59 SW9       30.23F
BENTON HARBOR  MOSUNNY   79  59  50 SW13      30.20F
BIG RAPIDS     MOSUNNY   79  57  46 SW9G18    30.19F
COLDWATER      PTSUNNY   77  58  52 SW6       30.24F
FREMONT        FAIR      79  55  43 SW15      30.19F
HOLLAND        SUNNY     79  61  53 SW12      30.21F
GRAND RAPIDS   PTSUNNY   78  57  48 SW8G18    30.21F
IONIA          FAIR      78  55  44 S9        30.21F
KALAMAZOO      MOSUNNY   79  59  50 S13       30.22F
LUDINGTON      SUNNY     78  63  59 S16G23    30.16F
MARSHALL       PTSUNNY   79  59  50 SW8       30.23F
MOUNT PLEASANT MOSUNNY   81  59  47 SW8G20    30.19F
MUSKEGON       CLOUDY    79  62  56 S17G24    30.20F
SOUTH HAVEN    MOSUNNY   80  63  56 W9        30.20F
$$
MIZ016>042-232000-
NORTHERN LOWER MICHIGAN

CITY           SKY/WX    TMP DP  RH WIND       PRES   REMARKS
ALPENA         SUNNY     85  56  37 SW8       30.13F
BEAVER ISLAND  SUNNY     77  64  64 SW14G24   30.11F
BELLAIRE       MOSUNNY   82  60  48 S7G16     30.13F
CADILLAC       MOSUNNY   79  60  51 SW15G23   30.18S
CHARLEVOIX     SUNNY     81  63  54 W12G21    30.15S
FRANKFORT      SUNNY     77  62  58 S15G26    30.14F
GAYLORD        SUNNY     81  57  43 SW15      30.16S
GRAYLING       SUNNY     82  60  47 SW9G16    30.17F
HARBOR SPRINGS SUNNY     80  66  62 W8        30.12S
HOUGHTON LAKE  SUNNY     80  58  46 SW14      30.19S
MANISTEE       MOSUNNY   79  61  53 S15G21    30.15F
OSCODA         SUNNY     83  60  45 SW18G25   30.15F
PELLSTON       SUNNY     81  61  50 SW12G24   30.12S
ROGERS CITY    SUNNY     85  59  40 SW9G17    30.13S
TRAVERSE CITY  MOSUNNY   82  59  45 SW13      30.12F
$$
MIZ007>008-015-232000-
EASTERN UPPER MICHIGAN

CITY           SKY/WX    TMP DP  RH WIND       PRES   REMARKS
KINROSS        MOSUNNY   80  64  58 SW12G24   30.10R
MACKINAC ISLAN SUNNY     77  63  61 SW16G29   30.12R
NEWBERRY       SUNNY     80  62  54 SW17G25   30.08R
S. S. MARIE    CLOUDY    81  62  52 SW18G26   30.07S
$$
MIZ004>006-011>014-085-232000-
CENTRAL UPPER MICHIGAN

CITY           SKY/WX    TMP DP  RH WIND       PRES   REMARKS
MANISTIQUE     SUNNY     73  65  76 SW14G22   30.08S
ESCANABA       SUNNY     77  64  64 S15G25    30.06F
MENOMINEE      CLOUDY   N/A N/A N/A SW20G25   30.08F
SAWYER-GWINN   SUNNY     81  63  54 S22       30.04F
$$
MIZ001>003-009>011-084-232000-
WESTERN UPPER MICHIGAN

CITY           SKY/WX    TMP DP  RH WIND       PRES   REMARKS
IRON MOUNTAIN  SUNNY     81  62  52 S16G25    30.05F
HOUGHTON       SUNNY     83  64  52 S13       29.95F
COPPER HARBOR    N/A     80  64  58 VRB5G16   29.94F
IRONWOOD       SUNNY     82  63  52 S15G29    29.95F
$$

ABBREVIATIONS USED IN REMARKS
   TC - TEMPERATURE IN CELSIUS
  WCI - WIND CHILL INDEX
   HX - HEAT INDEX
  VSB - VISIBILITY





USA.gov is the U.S. government's official web portal to all federal, state and local government web resources and services.